CUSAT 2 & FALCON 9 R/B (39271 NORAD) Tracking and Keplerian Element Data

This shows tracking and keplerian element data for the satellite.

Feedback or suggestion? Click here.




ElementValue
Catalog39271
NameCUSAT 2 & FALCON 9 R/B
Epoch Orbit56394
Epoch Day159.77952965
Epoch Year2024
RAAN91.001
Inclination80.9329
Eccentricity0.0302575
Argument of Perigee339.1758
Mean Anonmoly19.735
Mean Motion15.22433843
Decay Rate0.00102897
L11 39271U 13055G 24159.77952965 .00102897 14765-5 11746-2 0 9993
L22 39271 80.9329 91.0010 0302575 339.1758 19.7350 15.22433843563941



Live tracking and technical data element details for CUSAT 2 & FALCON 9 R/B (NORAD 39271). CUSAT 2 & FALCON 9 R/B can be tracked NOW for your location showing map with azimuth and elevation plus other details from your city location.







IsCatalogInMostPopularTable: catalog: 39271, numindb: 1162
Update: records affected: 1



GetName: 39271 CUSAT 2 & FALCON 9 R/B

Hit Count: updated at: Tue, 17 Sep 2024 13:08:04 GMT